[[{"header":{"parameterUnit":"m.s-1","parameterCategory":1,"la1":30.2991,"la2":30.254,"lo1":-89.0895,"lo2":-89.0444,"dy":0.0017,"dx":0.0017,"nx":28,"ny":28,"refTime":"2023-09-02T21:00:00:Z","depth":0,"parameterNumber":2,"parameterNumberName":"U-component_of_WINDS"},"data":[0,0,0,0,0,0,0,0,0,0,0,0,0,0,0,0,0,0,0,0,0,0,0,0,0,0,0,0,0,0,0,0,0,0,0,0,0,0,0,0,0,0,0,0,0,0,0,0,0,0,0,0,0,0,0,0,0,0,-5.1694,-5.1695,0,-5.1841,-5.1843,-5.1844,-5.1852,-5.185,-5.1849,-5.1847,-5.1995,-5.2,-5.2006,0,0,0,0,0,0,0,0,0,0,0,0,0,-5.1417,-5.1422,-5.1694,-5.1696,-5.1697,-5.1841,-5.1843,-5.1845,-5.1852,-5.185,-5.1848,-5.1846,-5.1993,-5.2,-5.2006,0,0,0,0,0,0,0,0,0,0,0,0,0,-5.1548,-5.1424,-5.1693,-5.1719,-5.1722,-5.184,-5.1843,-5.1845,-5.1853,-5.185,-5.1848,-5.1845,-5.1991,-5.1999,-5.2007,-5.2109,0,0,-5.2032,-5.2036,0,0,0,0,0,0,0,0,-5.1541,-5.1558,-5.1713,-5.1717,-5.1721,-5.1826,-5.1799,-5.1933,-5.1853,-5.1803,-5.1847,-5.1844,-5.194,-5.1953,-5.1986,-5.2116,-5.2122,-5.2033,-5.2038,-5.2042,-5.2044,0,0,0,0,0,0,0,-5.1532,-5.1552,-5.1752,-5.1715,-5.172,-5.1722,-5.1738,-5.1825,-5.1884,-5.1807,-5.1808,-5.1826,-5.1942,-5.1978,-5.1989,-5.2124,-5.2033,-5.204,-5.2045,-5.2049,-5.2344,-5.2347,0,0,0,0,0,0,-5.1518,-5.1544,-5.1747,-5.1756,-5.1623,-5.1729,-5.1746,-5.1795,-5.1883,-5.1894,-5.1828,-5.1825,-5.1965,-5.198,-5.1994,-5.2117,-5.2042,-5.2049,-5.2054,-5.2341,-5.2345,-5.2348,0,0,0,0,0,0,-5.1512,-5.1536,-5.1741,-5.1651,-5.1677,-5.1736,-5.179,-5.1799,-5.1834,-5.1899,-5.1909,-5.1853,-5.1963,-5.1983,-5.208,-5.2123,-5.2053,-5.2061,-5.2338,-5.2343,-5.2347,-5.2365,0,0,0,0,0,0,-5.1504,-5.1534,-5.1573,-5.1652,-5.1682,-5.1825,-5.1793,-5.1804,-5.1849,-5.1847,-5.1925,-5.1936,-5.1963,-5.2068,-5.2089,-5.2133,-5.2067,-5.2334,-5.234,-5.2345,-5.2361,-5.237,-5.2377,0,0,0,0,0,-5.1494,-5.1573,-5.1575,-5.16,-5.1733,-5.1827,-5.1845,-5.1875,-5.1852,-5.1892,-5.1934,-5.1933,-5.2116,-5.2078,-5.2101,-5.2148,-5.2332,-5.2338,-5.2345,-5.2357,-5.2368,-5.2377,0,0,0,0,0,0,-5.1497,-5.1583,-5.1587,-5.1693,-5.1753,-5.1829,-5.1879,-5.1886,-5.1952,-5.1948,-5.1982,-5.2,-5.2096,-5.2133,-5.2089,-5.2251,-5.2221,-5.2233,-5.2223,-5.2233,-5.2241,-5.2228,-5.2074,0,0,0,0,0,-5.151,-5.1581,-5.1652,-5.1739,-5.1769,-5.1819,-5.1862,-5.188,-5.1943,-5.1968,-5.2017,-5.2077,-5.2148,-5.2193,-5.2262,-5.2368,-5.2384,-5.2413,-5.2421,-5.2427,-5.2435,-5.2492,-5.2504,-5.2369,-5.2369,-5.2369,0,0,-5.1537,-5.1593,-5.1635,-5.1741,-5.1789,-5.186,-5.184,-5.1917,-5.1969,-5.1979,-5.2073,-5.2112,-5.2182,-5.2283,-5.233,-5.2317,-5.2477,-5.2435,-5.244,-5.2444,-5.25,-5.2512,-5.2524,-5.2374,-5.2373,-5.2372,0,0,-5.1622,-5.1673,-5.175,-5.1799,-5.1873,-5.1907,-5.1925,-5.2001,-5.2026,-5.2122,-5.2131,-5.2194,-5.2316,-5.2365,-5.2406,-5.2511,-5.2512,-5.2533,-5.2573,-5.2628,-5.2639,-5.2648,-5.2683,-5.2695,-5.2542,-5.2542,-5.2542,0,-5.1646,-5.1754,-5.1788,-5.1864,-5.191,-5.1925,-5.2001,-5.2048,-5.214,-5.2171,-5.2155,-5.2308,-5.2356,-5.2468,-5.2494,-5.2528,-5.2549,-5.2522,-5.2635,-5.2645,-5.2654,-5.2687,-5.2701,-5.2544,-5.2544,-5.2543,-5.2543,0,-5.1778,-5.1853,-5.1907,-5.1996,-5.2048,-5.2124,-5.2169,-5.2218,-5.2233,-5.2268,-5.2364,-5.2424,-5.2504,-5.2533,-5.2548,-5.2647,-5.2636,-5.2628,-5.2597,-5.2668,-5.27,-5.2713,-5.2546,-5.2546,-5.2545,-5.2545,0,0,-5.1865,-5.1974,-5.1992,-5.2032,-5.2116,-5.2174,-5.2252,-5.2331,-5.2371,-5.2436,-5.2499,-5.2603,-5.2596,-5.2642,-5.2664,-5.2713,-5.2789,-5.2698,-5.27,-5.271,-5.2899,-5.2902,-5.2916,-5.2793,-5.2795,-5.2798,-5.2892,0,-5.1956,-5.2093,-5.2127,-5.2244,-5.2312,-5.2329,-5.2396,-5.2454,-5.249,-5.2552,-5.2592,-5.2663,-5.265,-5.2678,-5.2727,-5.2769,-5.2827,-5.2764,-5.285,-5.2852,-5.2827,-5.2933,-5.2936,-5.3022,-5.2905,-5.2907,-5.2909,0,-5.208,-5.2147,-5.227,-5.2345,-5.2375,-5.2435,-5.251,-5.2571,-5.2637,-5.266,-5.2712,-5.2729,-5.2809,-5.2779,-5.2888,-5.2844,-5.2883,-5.2909,-5.2913,-5.2918,-5.2881,-5.2938,-5.3051,-5.3062,-5.2929,-5.2928,-5.2926,0,-5.2126,-5.2248,-5.2337,-5.2372,-5.2462,-5.2503,-5.2542,-5.2607,-5.2652,-5.2719,-5.2748,-5.2823,-5.2863,-5.2921,-5.2957,-5.2932,-5.3063,-5.3036,-5.3081,-5.308,-5.3104,-5.3101,-5.3221,-5.3136,-5.3136,-5.3136,-5.3135,0,-5.2221,-5.2295,-5.2359,-5.2413,-5.2496,-5.2536,-5.2617,-5.2657,-5.2714,-5.2776,-5.2796,-5.2854,-5.29,-5.2964,-5.2994,-5.3079,-5.3098,-5.3116,-5.3122,-5.3112,-5.3109,-5.3134,-5.3127,-5.3139,-5.3138,-5.3138,-5.3137,0,-5.2285,-5.2331,-5.2428,-5.2507,-5.2528,-5.2586,-5.2652,-5.2705,-5.2742,-5.282,-5.2841,-5.2899,-5.2975,-5.3019,-5.3115,-5.3135,-5.3228,-5.3233,-5.3205,-5.3207,-5.3249,-5.3243,-5.3385,-5.3404,-5.331,-5.3311,-5.3312,0,-5.234,-5.2398,-5.2482,-5.2525,-5.2565,-5.2635,-5.2682,-5.2724,-5.2771,-5.2852,-5.2895,-5.2973,-5.3037,-5.3158,-5.3208,-5.3281,-5.3286,-5.3331,-5.3297,-5.3284,-5.3282,-5.3277,-5.3282,-5.3335,-5.3336,-5.3337,-5.3337,0,-5.2433,-5.2453,-5.252,-5.2596,-5.2651,-5.2712,-5.2773,-5.2807,-5.2859,-5.2912,-5.299,-5.304,-5.3139,-5.3215,-5.3293,-5.3333,-5.3343,-5.3349,-5.3362,-5.335,-5.333,-5.3338,-5.3216,-5.3344,-5.3343,-5.3343,-5.3342,-5.3342,-5.2492,-5.2543,-5.261,-5.2684,-5.2735,-5.2791,-5.2845,-5.2889,-5.2956,-5.3039,-5.306,-5.3142,-5.3208,-5.3313,-5.3356,-5.342,-5.3412,-5.3433,-5.3437,-5.3441,-5.344,-5.3323,-5.3435,-5.3435,-5.3435,-5.3435,-5.3435,0,-5.2583,-5.2627,-5.2695,-5.278,-5.2838,-5.2845,-5.2913,-5.2961,-5.3033,-5.3094,-5.3156,-5.3246,-5.3321,-5.3378,-5.3454,-5.3494,-5.3501,-5.3512,-5.3508,-5.3516,-5.3445,-5.3423,-5.3506,-5.3506,-5.3506,-5.3506,-5.3506,-5.3506,-5.2636,-5.2722,-5.2751,-5.2862,-5.2907,-5.2987,-5.3025,-5.3077,-5.3125,-5.3225,-5.3287,-5.3324,-5.3384,-5.3464,-5.3533,-5.3548,-5.3573,-5.3583,-5.3598,-5.3529,-5.3521,-5.3514,-5.3494,-5.3589,-5.359,-5.3664,-5.3665,-5.3665]},{"header":{"parameterUnit":"m.s-1","parameterCategory":1,"la1":30.2991,"la2":30.254,"lo1":-89.0895,"lo2":-89.0444,"dy":0.0017,"dx":0.0017,"nx":28,"ny":28,"refTime":"2023-09-02T21:00:00:Z","depth":0,"parameterNumber":3,"parameterNumberName":"V-component_of_WINDS"},"data":[0,0,0,0,0,0,0,0,0,0,0,0,0,0,0,0,0,0,0,0,0,0,0,0,0,0,0,0,0,0,0,0,0,0,0,0,0,0,0,0,0,0,0,0,0,0,0,0,0,0,0,0,0,0,0,0,0,0,2.9782,2.9782,0,2.98,2.98,2.9801,2.9794,2.9794,2.9794,2.9793,2.981,2.9811,2.9811,0,0,0,0,0,0,0,0,0,0,0,0,0,2.9741,2.9741,2.9782,2.9782,2.9782,2.98,2.98,2.9801,2.9794,2.9794,2.9793,2.9793,2.981,2.981,2.9811,0,0,0,0,0,0,0,0,0,0,0,0,0,2.9759,2.9742,2.9782,2.9781,2.9782,2.98,2.98,2.9801,2.9795,2.9794,2.9793,2.9793,2.9809,2.981,2.9812,2.9831,0,0,2.9815,2.9816,0,0,0,0,0,0,0,0,2.9758,2.976,2.9781,2.9782,2.9782,2.9794,2.9792,2.9811,2.9795,2.979,2.9793,2.9793,2.9805,2.9807,2.9811,2.9832,2.9832,2.9815,2.9816,2.9817,2.9817,0,0,0,0,0,0,0,2.9756,2.9759,2.9789,2.9782,2.9782,2.978,2.9782,2.9795,2.98,2.979,2.979,2.9792,2.9805,2.981,2.9812,2.9833,2.9815,2.9816,2.9817,2.9818,2.9871,2.9871,0,0,0,0,0,0,2.9755,2.9758,2.9788,2.979,2.9768,2.9781,2.9783,2.9791,2.98,2.9801,2.9792,2.9792,2.9808,2.981,2.9812,2.9836,2.9817,2.9818,2.9818,2.987,2.9871,2.9872,0,0,0,0,0,0,2.9754,2.9758,2.9788,2.9774,2.9778,2.9783,2.9791,2.9792,2.9797,2.9802,2.9803,2.9797,2.9808,2.981,2.9827,2.9836,2.9818,2.9819,2.9869,2.987,2.9871,2.9883,0,0,0,0,0,0,2.9753,2.9758,2.9765,2.9774,2.9778,2.9802,2.9792,2.9792,2.9799,2.9798,2.9806,2.9807,2.9808,2.9825,2.9828,2.9837,2.982,2.9868,2.987,2.9871,2.9881,2.9884,2.9886,0,0,0,0,0,2.9752,2.9767,2.9766,2.9769,2.9788,2.9803,2.9805,2.9806,2.98,2.9807,2.9811,2.9807,2.9835,2.9827,2.983,2.984,2.9868,2.9869,2.9871,2.988,2.9884,2.9886,0,0,0,0,0,0,2.9758,2.9768,2.9767,2.9785,2.9793,2.9802,2.9811,2.9809,2.9818,2.9817,2.9817,2.9819,2.9836,2.984,2.983,2.986,2.985,2.9853,2.9856,2.9859,2.9862,2.986,2.9821,0,0,0,0,0,2.9762,2.9773,2.9781,2.9797,2.9802,2.9806,2.9812,2.9813,2.9821,2.9824,2.9828,2.9836,2.9846,2.9853,2.9863,2.9882,2.9884,2.9891,2.9893,2.9895,2.9897,2.9908,2.9911,2.9877,2.9877,2.9877,0,0,2.9769,2.9776,2.9783,2.9799,2.9805,2.9817,2.9809,2.9821,2.983,2.9825,2.9841,2.9845,2.9853,2.9871,2.988,2.9875,2.9907,2.9897,2.9899,2.9899,2.991,2.9913,2.9916,2.9878,2.9877,2.9877,0,0,2.9788,2.9795,2.9809,2.9816,2.9826,2.9829,2.9833,2.9842,2.9845,2.9861,2.9858,2.9868,2.9886,2.9893,2.9898,2.9922,2.9918,2.9925,2.9937,2.9948,2.995,2.9953,2.9961,2.9964,2.9927,2.9927,2.9927,0,2.9796,2.9814,2.9817,2.983,2.9837,2.9835,2.9849,2.9856,2.9868,2.9873,2.9868,2.9891,2.9897,2.9916,2.9922,2.9927,2.9931,2.9924,2.995,2.9952,2.9955,2.9963,2.9966,2.9928,2.9928,2.9928,2.9928,0,2.9823,2.9836,2.9847,2.986,2.9868,2.9882,2.9886,2.9894,2.9894,2.9898,2.9915,2.9921,2.9933,2.9938,2.9937,2.9958,2.9955,2.995,2.994,2.9959,2.9966,2.9969,2.9929,2.9929,2.9928,2.9928,0,0,2.9846,2.9862,2.9866,2.9872,2.9884,2.9894,2.9908,2.992,2.9927,2.9936,2.9948,2.9964,2.996,2.9966,2.9967,2.9976,2.9995,2.997,2.997,2.9974,3.0018,3.0021,3.0025,2.9993,2.9994,2.9994,3.0017,0,2.9866,2.9892,2.9895,2.9917,2.993,2.9928,2.9941,2.9949,2.9953,2.9964,2.9968,2.9979,2.9973,2.9977,2.9986,2.9991,3.0003,2.9989,3.0003,3.0004,3.0001,3.0029,3.0032,3.0053,3.002,3.0021,3.0021,0,2.9894,2.9905,2.9929,2.994,2.9945,2.9956,2.9968,2.9979,2.9988,2.9991,2.9999,2.9998,3.0012,3.0003,3.0023,3.0013,3.0019,3.0022,3.0023,3.0024,3.0013,3.003,3.006,3.0063,3.0026,3.0025,3.0025,0,2.9908,2.9929,2.9946,2.9952,2.9965,2.9973,2.9979,2.9988,2.9996,3.0006,3.0011,3.0023,3.0029,3.0038,3.0041,3.0034,3.006,3.0051,3.0062,3.0062,3.0067,3.0067,3.0098,3.0072,3.0072,3.0072,3.0072,0,2.993,2.9945,2.9953,2.9964,2.998,2.9984,3.0,3.0005,3.0014,3.0025,3.0024,3.0035,3.0038,3.0049,3.0051,3.0067,3.007,3.0072,3.0072,3.0072,3.0071,3.0075,3.0074,3.0072,3.0072,3.0072,3.0072,0,2.9949,2.9955,2.9973,2.9985,2.9989,3.0,3.001,3.002,3.0025,3.0039,3.0043,3.0049,3.0062,3.0066,3.0081,3.0083,3.0102,3.0101,3.0099,3.0098,3.0109,3.0108,3.0144,3.0149,3.012,3.012,3.012,0,2.9962,2.9974,2.9988,2.9996,3.0002,3.0015,3.0023,3.0028,3.0036,3.0049,3.0057,3.007,3.0081,3.0102,3.0108,3.0119,3.0119,3.013,3.012,3.012,3.0119,3.0118,3.0119,3.0132,3.0132,3.0133,3.0133,0,2.9986,2.9989,3.0001,3.0015,3.0026,3.0036,3.0046,3.0053,3.0059,3.0068,3.0082,3.0091,3.0107,3.012,3.0132,3.0138,3.0136,3.0136,3.0139,3.0139,3.0137,3.0138,3.0103,3.0135,3.0135,3.0135,3.0135,3.0135,3.0003,3.0013,3.0025,3.0039,3.0048,3.0058,3.0068,3.0074,3.0086,3.0101,3.0102,3.0117,3.0127,3.0144,3.015,3.0161,3.0158,3.0162,3.0163,3.0164,3.0165,3.0136,3.0164,3.0164,3.0163,3.0163,3.0163,0,3.0027,3.0035,3.0048,3.0063,3.0074,3.0073,3.0085,3.0094,3.0107,3.0117,3.0128,3.0144,3.0157,3.0165,3.0177,3.0185,3.0185,3.0188,3.0188,3.0189,3.0168,3.0164,3.0188,3.0188,3.0188,3.0188,3.0188,3.0188,3.004,3.0059,3.0063,3.0085,3.0093,3.0108,3.0115,3.0124,3.0132,3.0151,3.0162,3.0167,3.0176,3.0189,3.0201,3.0203,3.0207,3.0211,3.0213,3.0193,3.019,3.0188,3.0184,3.0213,3.0213,3.0233,3.0233,3.0233]}]]